SCOUT X-4 DEB, 2011

Orbit data source: Space-Track

SCOUT X-4 DEB, 2011 is space debris in LEO originally from a launch on Thu, 29 Apr 1965 UTC launched from the Wallops Island (WLPIS). Debris objects in space refer to the collection of defunct objects orbiting the Earth. Examples of debris include non-operational satellites, rocket bodies, and fragments generated from explosions, collisions, or faulty payload assembly.

Loading next visibility...
Identifier
2011, 1965-032D
Orbit
LEO
Country
Flag of USUS
Related business
Manufacturer
Unknown
Mission
Spacecraft
Bus & Motor
Unknown
Mass
Unknown
Launch date (UTC)
1965-04-29 (61 years ago)
Launch vehicle
Unknown
Launch site
Wallops Island (WLPIS)
Object type
Payload
Rocket body
Debris
Shape & HBR
Unknown shape, 0.1 m
Radar Cross Section
Small (<0.1 m²)

Expand to show TLE details & history
Last TLE update: 4 days ago

TLE from 4 days ago
0 SCOUT X-4 DEB
1 02011U 65032D   26260.85835432  .00001175  00000-0  19663-2 0  9995
2 02011  41.1973  83.7164 0219195  62.5419  65.3324 13.41114948989762
Epoch: 2026-09-17T20:36Z
TLE epoch observation values (Epoch: 2026-09-17T20:36:01.813Z)
Latitude
30.32218°
Longitude
-83.74032°
Altitude
1,040.218 km
Speed
7.368 km/s
True Right ascension
14h 48m 13s
True Declination
30° 10' 42"
Sunlit
Object was in daylight at epoch
Visualization orbit readout
Latitude
Unknown
Longitude
Unknown
Altitude
Unknown
Speed
Unknown
Apparent Right ascension
Unknown
Apparent Declination
Unknown
Sunlit
N/A
Visualization observer readout
Local Sidereal Time
14:51:05
Azimuth
Unknown
Elevation
Unknown
Doppler factor
Unknown
Orbital elements
Apogee altitude
1,271.265 km
Perigee altitude
943.116 km
Semi-major axis
7,485.328 km
Eccentricity
0.02192
Inclination
41.1973°
RAAN
83.7164°
Arg. of periapsis
62.5419°
True anomaly
67.64074°
Mean anomaly
65.3324°
Eccentric anomaly
66.48399°
Mean motion
3.35141 °/min
Orbital period
107.42 mins
BSTAR
0.0019663
Loading maneuver chart data...
Computing Atmospheric mass density...
Loading historical data...
Loading historical data...
Loading historical data...
Loading historical data...
Loading historical data...
Loading historical data...
Loading historical data...
Other satellites on launch #32 in the year 1965 (1965-04-29 UTC)

Documentation

Showing up to 5 results
|